RAM235 GMMN-LPPT

Flight info

Callsign RAM235
Flight time 1h 2m
Altitude 38000
Route LAKAM UR722 AMSEL DCT VATZI
Aircraft B38M/M-SDE1FGHILORVWXY/HB1

Departure

Time 2026-05-07 16:29
Airport Mohammed V International Airport (GMMN)

Arrival

Time 2026-05-07 17:31
Airport Lisbon Humberto Delgado Airport (LPPT)
Time Latitude Longitude Altitude Speed Heading
2026-05-07 15:30 33.37312 -7.58250 650 ft 0 kts 63°
2026-05-07 16:09 33.37311 -7.58251 650 ft 2 kts 63°
2026-05-07 16:09 33.37304 -7.58269 650 ft 2 kts 66°
2026-05-07 16:10 33.37298 -7.58287 651 ft 2 kts 71°
2026-05-07 16:10 33.37294 -7.58306 653 ft 2 kts 83°
2026-05-07 16:10 33.37294 -7.58326 650 ft 2 kts 117°
2026-05-07 16:10 33.37305 -7.58339 654 ft 2 kts 159°
2026-05-07 16:11 33.37310 -7.58341 654 ft 0 kts 164°
2026-05-07 16:21 33.37306 -7.58340 650 ft 2 kts 164°
2026-05-07 16:21 33.37285 -7.58333 650 ft 5 kts 165°
2026-05-07 16:21 33.37247 -7.58320 652 ft 7 kts 164°
2026-05-07 16:22 33.37191 -7.58301 650 ft 10 kts 163°
2026-05-07 16:22 33.37118 -7.58276 652 ft 12 kts 164°
2026-05-07 16:22 33.37051 -7.58254 651 ft 8 kts 164°
2026-05-07 16:22 33.36995 -7.58235 651 ft 9 kts 165°
2026-05-07 16:23 33.36953 -7.58248 654 ft 5 kts 213°
2026-05-07 16:23 33.36941 -7.58263 653 ft 1 kts 251°
2026-05-07 16:23 33.36937 -7.58278 654 ft 3 kts 252°
2026-05-07 16:23 33.36928 -7.58313 651 ft 6 kts 252°
2026-05-07 16:24 33.36920 -7.58346 654 ft 7 kts 254°
2026-05-07 16:24 33.36905 -7.58410 652 ft 9 kts 251°
2026-05-07 16:24 33.36856 -7.58459 652 ft 10 kts 185°
2026-05-07 16:24 33.36752 -7.58429 655 ft 13 kts 163°
2026-05-07 16:25 33.36689 -7.58407 654 ft 15 kts 163°
2026-05-07 16:25 33.36583 -7.58371 653 ft 17 kts 164°
2026-05-07 16:25 33.36462 -7.58330 653 ft 19 kts 164°
2026-05-07 16:25 33.36328 -7.58283 655 ft 21 kts 164°
2026-05-07 16:26 33.36181 -7.58233 655 ft 23 kts 164°
2026-05-07 16:26 33.36026 -7.58181 657 ft 23 kts 164°
2026-05-07 16:26 33.35870 -7.58125 659 ft 24 kts 162°
2026-05-07 16:26 33.35710 -7.58072 656 ft 24 kts 165°
2026-05-07 16:27 33.35596 -7.58059 657 ft 12 kts 216°
2026-05-07 16:27 33.35562 -7.58141 657 ft 11 kts 253°
2026-05-07 16:27 33.35541 -7.58233 657 ft 12 kts 256°
2026-05-07 16:27 33.35529 -7.58337 656 ft 13 kts 270°
2026-05-07 16:28 33.35541 -7.58375 656 ft 0 kts 334°
2026-05-07 16:28 33.35542 -7.58374 656 ft 0 kts 346°
2026-05-07 16:28 33.35579 -7.58386 657 ft 28 kts 344°
2026-05-07 16:29 33.36047 -7.58545 655 ft 110 kts 343°
2026-05-07 16:29 33.36971 -7.58857 780 ft 162 kts 345°
2026-05-07 16:29 33.38153 -7.59253 1386 ft 182 kts 346°
2026-05-07 16:29 33.39232 -7.59976 2247 ft 176 kts 325°
2026-05-07 16:30 33.40170 -7.60873 2794 ft 173 kts 322°
2026-05-07 16:30 33.41098 -7.61890 2851 ft 187 kts 319°
2026-05-07 16:30 33.42064 -7.63053 2854 ft 203 kts 316°
2026-05-07 16:30 33.42992 -7.64263 3437 ft 189 kts 314°
2026-05-07 16:31 33.43841 -7.65457 3841 ft 194 kts 311°
2026-05-07 16:31 33.44751 -7.66792 3813 ft 217 kts 309°
2026-05-07 16:31 33.45686 -7.68217 4207 ft 213 kts 307°
2026-05-07 16:31 33.46553 -7.69581 4859 ft 201 kts 306°
2026-05-07 16:32 33.47397 -7.70944 5108 ft 209 kts 304°
2026-05-07 16:32 33.48267 -7.72409 5201 ft 222 kts 303°
2026-05-07 16:32 33.49198 -7.73910 5370 ft 230 kts 309°
2026-05-07 16:32 33.50417 -7.75242 5402 ft 242 kts 322°
2026-05-07 16:33 33.51872 -7.76261 5592 ft 242 kts 335°
2026-05-07 16:33 33.53459 -7.76882 5978 ft 238 kts 347°
2026-05-07 16:33 33.55097 -7.77087 6355 ft 235 kts 359°
2026-05-07 16:33 33.56691 -7.76880 6700 ft 233 kts 11°
2026-05-07 16:34 33.58247 -7.76268 6945 ft 238 kts 24°
2026-05-07 16:34 33.59734 -7.75243 7140 ft 259 kts 34°
2026-05-07 16:34 33.61342 -7.74046 7375 ft 284 kts 28°
2026-05-07 16:34 33.63187 -7.73093 7618 ft 290 kts 17°
2026-05-07 16:35 33.65156 -7.72530 7869 ft 292 kts
2026-05-07 16:35 33.67196 -7.72383 8127 ft 296 kts 356°
2026-05-07 16:35 33.69243 -7.72623 8407 ft 295 kts 350°
2026-05-07 16:35 33.71295 -7.72892 8810 ft 299 kts 355°
2026-05-07 16:36 33.73376 -7.72956 9199 ft 299 kts 359°
2026-05-07 16:36 33.75468 -7.72927 9599 ft 302 kts 359°
2026-05-07 16:36 33.77580 -7.72952 9977 ft 304 kts 357°
2026-05-07 16:36 33.79698 -7.73018 10331 ft 305 kts 357°
2026-05-07 16:37 33.81830 -7.73073 10688 ft 308 kts 357°
2026-05-07 16:37 33.83979 -7.73112 11052 ft 310 kts 357°
2026-05-07 16:37 33.86144 -7.73151 11421 ft 312 kts 357°
2026-05-07 16:37 33.88324 -7.73198 11787 ft 314 kts 356°
2026-05-07 16:38 33.90517 -7.73246 12160 ft 316 kts 356°
2026-05-07 16:38 33.92728 -7.73292 12541 ft 318 kts 356°
2026-05-07 16:38 33.94956 -7.73338 12926 ft 326 kts 356°
2026-05-07 16:38 33.97271 -7.73389 13343 ft 340 kts 356°
2026-05-07 16:39 33.99687 -7.73440 13759 ft 354 kts 356°
2026-05-07 16:39 34.02191 -7.73491 14205 ft 364 kts 356°
2026-05-07 16:39 34.04749 -7.73542 14693 ft 372 kts 355°
2026-05-07 16:39 34.07487 -7.73600 15210 ft 380 kts 355°
2026-05-07 16:40 34.10031 -7.73654 15688 ft 387 kts 355°
2026-05-07 16:40 34.12746 -7.73711 16192 ft 393 kts 355°
2026-05-07 16:40 34.15506 -7.73768 16704 ft 399 kts 354°
2026-05-07 16:40 34.18302 -7.73826 17219 ft 405 kts 354°
2026-05-07 16:41 34.21128 -7.73974 17755 ft 408 kts 352°
2026-05-07 16:41 34.23978 -7.74192 18280 ft 412 kts 351°
2026-05-07 16:41 34.26864 -7.74411 18747 ft 417 kts 352°
2026-05-07 16:41 34.29773 -7.74605 19213 ft 421 kts 352°
2026-05-07 16:42 34.32714 -7.74797 19687 ft 425 kts 352°
2026-05-07 16:42 34.35679 -7.75005 20168 ft 429 kts 351°
2026-05-07 16:42 34.38669 -7.75219 20656 ft 432 kts 351°
2026-05-07 16:42 34.41647 -7.75426 21147 ft 435 kts 351°
2026-05-07 16:43 34.44680 -7.75633 21650 ft 438 kts 351°
2026-05-07 16:43 34.47729 -7.75844 22160 ft 440 kts 351°
2026-05-07 16:43 34.50796 -7.76059 22683 ft 442 kts 351°
2026-05-07 16:43 34.53878 -7.76276 23129 ft 446 kts 351°
2026-05-07 16:44 34.56993 -7.76492 23578 ft 449 kts 351°
2026-05-07 16:44 34.60127 -7.76710 23959 ft 453 kts 351°
2026-05-07 16:44 34.63281 -7.76930 24346 ft 455 kts 351°
2026-05-07 16:44 34.66460 -7.77152 24739 ft 458 kts 351°
2026-05-07 16:45 34.69646 -7.77375 25137 ft 460 kts 351°
2026-05-07 16:45 34.72853 -7.77599 25541 ft 462 kts 351°
2026-05-07 16:45 34.76069 -7.77829 25982 ft 464 kts 351°
2026-05-07 16:45 34.79292 -7.78101 26438 ft 463 kts 350°
2026-05-07 16:46 34.82500 -7.78392 26929 ft 462 kts 350°
2026-05-07 16:46 34.85704 -7.78662 27439 ft 462 kts 350°
2026-05-07 16:46 34.88912 -7.78917 27938 ft 460 kts 350°
2026-05-07 16:46 34.92102 -7.79179 28457 ft 459 kts 350°
2026-05-07 16:47 34.95284 -7.79452 28986 ft 457 kts 350°
2026-05-07 16:47 34.98452 -7.79721 29521 ft 455 kts 350°
2026-05-07 16:47 35.01607 -7.79982 30068 ft 453 kts 350°
2026-05-07 16:47 35.04738 -7.80241 30531 ft 450 kts 349°
2026-05-07 16:48 35.07852 -7.80504 31000 ft 447 kts 349°
2026-05-07 16:48 35.10944 -7.80765 31475 ft 443 kts 349°
2026-05-07 16:48 35.14010 -7.81022 31881 ft 442 kts 349°
2026-05-07 16:49 35.20246 -7.81555 31945 ft 458 kts 349°
2026-05-07 16:49 35.26567 -7.82347 31956 ft 455 kts 341°
2026-05-07 16:50 35.32519 -7.84626 31964 ft 446 kts 328°
2026-05-07 16:50 35.38012 -7.88071 31961 ft 444 kts 325°
2026-05-07 16:51 35.43733 -7.91076 31960 ft 453 kts 335°
2026-05-07 16:51 35.49796 -7.93313 31981 ft 453 kts 334°
2026-05-07 16:52 35.55643 -7.95978 31952 ft 447 kts 332°
2026-05-07 16:52 35.61556 -7.98467 31950 ft 449 kts 334°
2026-05-07 16:53 35.67437 -8.01022 31952 ft 448 kts 333°
2026-05-07 16:53 35.73321 -8.03565 31952 ft 448 kts 333°
2026-05-07 16:54 35.79212 -8.06110 31948 ft 448 kts 333°
2026-05-07 16:54 35.85094 -8.08666 31947 ft 448 kts 333°
2026-05-07 16:55 35.90861 -8.11166 31951 ft 448 kts 333°
2026-05-07 16:55 35.96739 -8.13725 31949 ft 447 kts 333°
2026-05-07 16:56 36.02656 -8.16309 32000 ft 456 kts 339°
2026-05-07 16:56 36.11645 -8.20226 32000 ft 456 kts 340°
2026-05-07 16:57 36.17589 -8.22825 32002 ft 456 kts 340°
2026-05-07 16:57 36.23517 -8.25423 32002 ft 457 kts 340°
2026-05-07 16:58 36.29508 -8.28051 32003 ft 457 kts 340°
2026-05-07 16:58 36.35503 -8.30686 32004 ft 457 kts 340°
2026-05-07 16:59 36.41460 -8.33309 32004 ft 457 kts 340°
2026-05-07 16:59 36.47461 -8.35955 32005 ft 457 kts 340°
2026-05-07 17:00 36.53464 -8.38606 32005 ft 457 kts 340°
2026-05-07 17:00 36.59457 -8.41258 32005 ft 457 kts 340°
2026-05-07 17:01 36.65447 -8.43912 32006 ft 457 kts 340°
2026-05-07 17:01 36.71437 -8.46571 32006 ft 457 kts 340°
2026-05-07 17:02 36.77434 -8.49238 32007 ft 457 kts 340°
2026-05-07 17:02 36.83419 -8.51903 32007 ft 457 kts 340°
2026-05-07 17:03 36.89417 -8.54579 32007 ft 457 kts 340°
2026-05-07 17:03 36.95407 -8.57255 32008 ft 457 kts 340°
2026-05-07 17:04 37.01395 -8.59935 32008 ft 457 kts 340°
2026-05-07 17:04 37.06377 -8.62169 32008 ft 457 kts 340°
2026-05-07 17:05 37.12372 -8.64860 32009 ft 457 kts 340°
2026-05-07 17:05 37.18370 -8.67558 32009 ft 458 kts 340°
2026-05-07 17:06 37.24374 -8.70263 32010 ft 458 kts 340°
2026-05-07 17:06 37.30393 -8.72979 32011 ft 460 kts 340°
2026-05-07 17:07 37.33365 -8.74322 31869 ft 460 kts 340°
2026-05-07 17:07 37.36367 -8.75679 31612 ft 456 kts 340°
2026-05-07 17:07 37.39350 -8.77029 31362 ft 454 kts 340°
2026-05-07 17:07 37.42311 -8.78370 31108 ft 452 kts 340°
2026-05-07 17:08 37.45269 -8.79711 30855 ft 450 kts 340°
2026-05-07 17:08 37.48211 -8.81046 30566 ft 450 kts 340°
2026-05-07 17:08 37.51159 -8.82385 30216 ft 449 kts 340°
2026-05-07 17:08 37.54094 -8.83719 29868 ft 447 kts 340°
2026-05-07 17:09 37.57007 -8.85044 29517 ft 443 kts 340°
2026-05-07 17:09 37.59893 -8.86354 29009 ft 438 kts 341°
2026-05-07 17:09 37.62757 -8.87540 28490 ft 426 kts 342°
2026-05-07 17:09 37.65543 -8.88645 27971 ft 414 kts 342°
2026-05-07 17:10 37.68263 -8.89735 27433 ft 408 kts 342°
2026-05-07 17:10 37.70972 -8.90846 26653 ft 406 kts 341°
2026-05-07 17:10 37.73648 -8.91944 25763 ft 402 kts 342°
2026-05-07 17:10 37.76297 -8.93019 24889 ft 398 kts 342°
2026-05-07 17:11 37.78918 -8.94081 24017 ft 393 kts 342°
2026-05-07 17:11 37.81509 -8.95138 23143 ft 389 kts 342°
2026-05-07 17:11 37.84071 -8.96186 22272 ft 385 kts 342°
2026-05-07 17:11 37.86608 -8.97222 21402 ft 381 kts 342°
2026-05-07 17:12 37.89112 -8.98244 20533 ft 377 kts 342°
2026-05-07 17:12 37.91591 -8.99257 19661 ft 372 kts 342°
2026-05-07 17:12 37.94036 -9.00257 18768 ft 366 kts 342°
2026-05-07 17:12 37.96430 -9.01238 17844 ft 361 kts 342°
2026-05-07 17:13 37.98798 -9.02208 16833 ft 351 kts 342°
2026-05-07 17:13 38.01062 -9.03136 15799 ft 333 kts 341°
2026-05-07 17:13 38.03213 -9.04044 14780 ft 320 kts 341°
2026-05-07 17:13 38.05277 -9.04928 13945 ft 305 kts 341°
2026-05-07 17:14 38.07258 -9.05766 13062 ft 297 kts 341°
2026-05-07 17:14 38.09214 -9.06590 12193 ft 296 kts 341°
2026-05-07 17:14 38.11168 -9.07415 11412 ft 293 kts 341°
2026-05-07 17:14 38.13078 -9.08224 11040 ft 287 kts 341°
2026-05-07 17:15 38.14971 -9.09027 11012 ft 289 kts 341°
2026-05-07 17:15 38.16934 -9.09665 11011 ft 292 kts 351°
2026-05-07 17:15 38.18964 -9.09884 10776 ft 295 kts 360°
2026-05-07 17:15 38.21006 -9.09668 10411 ft 294 kts
2026-05-07 17:16 38.22977 -9.09012 10131 ft 291 kts 20°
2026-05-07 17:16 38.24816 -9.07936 9937 ft 291 kts 30°
2026-05-07 17:16 38.26468 -9.06482 9748 ft 286 kts 40°
2026-05-07 17:16 38.27868 -9.04717 9544 ft 281 kts 50°
2026-05-07 17:17 38.28977 -9.02701 9337 ft 276 kts 60°
2026-05-07 17:17 38.29764 -9.00499 9132 ft 271 kts 71°
2026-05-07 17:17 38.30212 -8.98186 8927 ft 268 kts 82°
2026-05-07 17:17 38.30443 -8.95841 8719 ft 266 kts 82°
2026-05-07 17:18 38.30799 -8.93535 8516 ft 265 kts 73°
2026-05-07 17:18 38.31461 -8.91357 8317 ft 263 kts 63°
2026-05-07 17:18 38.32429 -8.89390 8121 ft 262 kts 51°
2026-05-07 17:18 38.33671 -8.87699 7924 ft 261 kts 40°
2026-05-07 17:19 38.35136 -8.86349 7729 ft 260 kts 29°
2026-05-07 17:19 38.36771 -8.85386 7532 ft 259 kts 18°
2026-05-07 17:19 38.38506 -8.84847 7339 ft 258 kts
2026-05-07 17:19 38.40300 -8.84746 7143 ft 256 kts 356°
2026-05-07 17:20 38.42056 -8.85094 7004 ft 253 kts 344°
2026-05-07 17:20 38.43707 -8.85876 7016 ft 254 kts 333°
2026-05-07 17:20 38.45241 -8.86925 7002 ft 254 kts 330°
2026-05-07 17:20 38.46790 -8.88080 7002 ft 254 kts 327°
2026-05-07 17:21 38.48186 -8.89453 7004 ft 254 kts 316°
2026-05-07 17:21 38.49343 -8.91153 7005 ft 254 kts 304°
2026-05-07 17:21 38.50211 -8.93103 7000 ft 253 kts 293°
2026-05-07 17:21 38.50758 -8.95234 6996 ft 253 kts 282°
2026-05-07 17:22 38.50969 -8.97467 6916 ft 255 kts 271°
2026-05-07 17:22 38.50847 -8.99713 6737 ft 253 kts 262°
2026-05-07 17:22 38.50553 -9.01916 6565 ft 250 kts 259°
2026-05-07 17:22 38.50226 -9.04080 6388 ft 246 kts 259°
2026-05-07 17:23 38.49895 -9.06225 6129 ft 247 kts 259°
2026-05-07 17:23 38.49577 -9.08366 6003 ft 241 kts 263°
2026-05-07 17:23 38.49522 -9.10493 6001 ft 240 kts 274°
2026-05-07 17:23 38.49707 -9.12645 5651 ft 247 kts 278°
2026-05-07 17:24 38.49959 -9.14811 5266 ft 243 kts 278°
2026-05-07 17:24 38.50214 -9.16897 4862 ft 234 kts 279°
2026-05-07 17:24 38.50560 -9.18882 4462 ft 226 kts 289°
2026-05-07 17:24 38.51213 -9.20671 4098 ft 219 kts 303°
2026-05-07 17:25 38.52122 -9.22115 4038 ft 199 kts 317°
2026-05-07 17:25 38.53189 -9.23144 4086 ft 195 kts 327°
2026-05-07 17:25 38.54335 -9.24035 4075 ft 191 kts 328°
2026-05-07 17:25 38.55521 -9.24795 4070 ft 191 kts 340°
2026-05-07 17:26 38.56820 -9.25156 4073 ft 192 kts 355°
2026-05-07 17:26 38.58152 -9.25081 4069 ft 193 kts
2026-05-07 17:26 38.59409 -9.24579 4061 ft 186 kts 25°
2026-05-07 17:26 38.60525 -9.23669 4052 ft 194 kts 39°
2026-05-07 17:27 38.61533 -9.22602 3985 ft 180 kts 34°
2026-05-07 17:27 38.62608 -9.21856 3877 ft 176 kts 22°
2026-05-07 17:27 38.63746 -9.21272 3598 ft 177 kts 21°
2026-05-07 17:27 38.64875 -9.20694 3295 ft 173 kts 21°
2026-05-07 17:28 38.65984 -9.20109 2994 ft 172 kts 22°
2026-05-07 17:28 38.67083 -9.19524 2691 ft 168 kts 22°
2026-05-07 17:28 38.68148 -9.18958 2377 ft 163 kts 22°
2026-05-07 17:28 38.69167 -9.18416 2070 ft 157 kts 22°
2026-05-07 17:29 38.70138 -9.17895 1734 ft 145 kts 22°
2026-05-07 17:29 38.71016 -9.17421 1518 ft 133 kts 22°
2026-05-07 17:29 38.71866 -9.16960 1354 ft 132 kts 23°
2026-05-07 17:29 38.72699 -9.16473 1103 ft 130 kts 24°
2026-05-07 17:30 38.73520 -9.16002 1012 ft 134 kts 23°
2026-05-07 17:30 38.74419 -9.15533 965 ft 140 kts 21°
2026-05-07 17:30 38.75289 -9.15087 684 ft 133 kts 20°
2026-05-07 17:30 38.76135 -9.14658 457 ft 129 kts 22°
2026-05-07 17:31 38.76979 -9.14202 362 ft 133 kts 22°
2026-05-07 17:31 38.77695 -9.13826 352 ft 91 kts 21°
2026-05-07 17:31 38.78133 -9.13590 352 ft 43 kts 23°
2026-05-07 17:31 38.78324 -9.13419 350 ft 28 kts 45°
2026-05-07 17:32 38.78365 -9.13276 353 ft 10 kts 129°
2026-05-07 17:32 38.78331 -9.13263 353 ft 4 kts 188°
2026-05-07 17:32 38.78307 -9.13271 353 ft 4 kts 198°
2026-05-07 17:32 38.78289 -9.13280 355 ft 5 kts 200°
2026-05-07 17:33 38.78248 -9.13299 352 ft 0 kts 200°
2026-05-07 17:34 38.78244 -9.13301 351 ft 1 kts 201°
2026-05-07 17:34 38.78226 -9.13311 355 ft 4 kts 202°
2026-05-07 17:34 38.78194 -9.13329 353 ft 6 kts 205°
2026-05-07 17:34 38.78150 -9.13352 353 ft 8 kts 201°
2026-05-07 17:35 38.78095 -9.13379 354 ft 9 kts 201°
2026-05-07 17:35 38.78034 -9.13413 353 ft 10 kts 207°
2026-05-07 17:35 38.77969 -9.13451 356 ft 11 kts 202°
2026-05-07 17:35 38.77896 -9.13489 350 ft 12 kts 204°
2026-05-07 17:36 38.77817 -9.13533 353 ft 13 kts 203°
2026-05-07 17:36 38.77731 -9.13580 353 ft 14 kts 199°
2026-05-07 17:36 38.77639 -9.13593 352 ft 13 kts 176°
2026-05-07 17:36 38.77546 -9.13570 350 ft 14 kts 168°
2026-05-07 17:37 38.77453 -9.13545 350 ft 10 kts 168°
2026-05-07 17:37 38.77390 -9.13528 353 ft 0 kts 168°
2026-05-07 17:38 38.77385 -9.13526 351 ft 2 kts 168°
2026-05-07 17:38 38.77360 -9.13520 355 ft 5 kts 168°
2026-05-07 17:38 38.77308 -9.13506 348 ft 10 kts 168°
2026-05-07 17:39 38.77226 -9.13484 353 ft 15 kts 168°
2026-05-07 17:39 38.77152 -9.13463 348 ft 17 kts 167°
2026-05-07 17:39 38.76971 -9.13416 357 ft 23 kts 168°
2026-05-07 17:39 38.76815 -9.13373 348 ft 18 kts 168°
2026-05-07 17:40 38.76723 -9.13405 355 ft 14 kts 211°
2026-05-07 17:40 38.76644 -9.13468 350 ft 9 kts 203°
2026-05-07 17:40 38.76597 -9.13470 351 ft 2 kts 160°